TimeIST,TemperatureF,Dew PointF,Humidity,Sea Level PressureIn,VisibilityMPH,Wind Direction,Wind SpeedMPH,Gust SpeedMPH,PrecipitationIn,Events,Conditions,WindDirDegrees,DateUTC
2:30 AM,77,70,74,29.91,2,NE,4.6,,,,Haze,50,2014-03-04 21:00:00
2:30 AM,77.0,69.8,78,29.95,3.1,NE,4.6,-,N/A,,Haze,50,2014-03-04 21:00:00
4:30 AM,75.2,69.8,83,29.95,3.1,ENE,5.8,-,N/A,,Haze,60,2014-03-04 23:00:00
5:30 AM,76,69,73,29.91,2,NE,6.9,,,,Haze,50,2014-03-05 00:00:00
7:30 AM,75.2,69.8,83,30.01,3.1,ENE,8.1,-,N/A,,Haze,60,2014-03-05 02:00:00
8:00 AM,77.0,69.8,78,30.01,3.1,ENE,8.1,-,N/A,,Haze,70,2014-03-05 02:30:00
8:30 AM,77,69,71,29.96,2,NE,6.9,,,,Haze,50,2014-03-05 03:00:00
8:30 AM,77.0,69.8,78,30.01,3.1,NE,6.9,-,N/A,,Haze,50,2014-03-05 03:00:00
9:00 AM,78.8,69.8,74,30.04,3.1,East,5.8,-,N/A,,Haze,100,2014-03-05 03:30:00
9:30 AM,78.8,69.8,74,30.04,3.1,East,9.2,-,N/A,,Haze,80,2014-03-05 04:00:00
10:00 AM,80.6,68.0,65,30.04,3.7,East,9.2,-,N/A,,Scattered Clouds,100,2014-03-05 04:30:00
10:30 AM,80.6,68.0,65,30.04,3.7,ESE,8.1,-,N/A,,Scattered Clouds,110,2014-03-05 05:00:00
11:00 AM,82.4,68.0,62,30.04,3.7,ESE,6.9,-,N/A,,Scattered Clouds,110,2014-03-05 05:30:00
11:30 AM,84,65,44,29.94,2,ESE,9.2,,,,Haze,110,2014-03-05 06:00:00
11:30 AM,84.2,66.2,55,30.01,4.3,ESE,9.2,-,N/A,,Scattered Clouds,110,2014-03-05 06:00:00
2:00 PM,89.6,62.6,40,29.92,5.0,SE,6.9,-,N/A,,Scattered Clouds,140,2014-03-05 08:30:00
2:30 PM,90,62,29,29.81,2,East,3.5,,,,Haze,90,2014-03-05 09:00:00
2:30 PM,89.6,62.6,40,29.89,5.0,East,3.5,-,N/A,,Scattered Clouds,90,2014-03-05 09:00:00
5:30 PM,92,58,22,29.76,2,ESE,3.5,,,,Haze,110,2014-03-05 12:00:00
5:30 PM,91.4,57.2,31,29.86,5.0,ESE,3.5,-,N/A,,Partly Cloudy,110,2014-03-05 12:00:00
8:30 PM,87,60,30,29.84,2,SE,5.8,,,,Haze,140,2014-03-05 15:00:00
11:30 PM,81,69,58,29.91,2,SE,13.8,,,,Haze,140,2014-03-05 18:00:00